This demonstration page uses our WeatherBlox Daily Observations layout. Learn more.

Left ArrowRight Arrow

Hourly Observations for July 17, 2020

Temp ( °F °C ) Dew Point ( °F °C ) Humidity (%) Winds ( mph kmh ) Pressure ( in mb ) Visibility ( mi km ) Precip ( " mm )
12:51 am 00:51 Clear 74 23.3 65 18.3 74 74 S 15 24 29.89 1012 10 16.0934 0 0
1:51 am 01:51 Mostly Clear 75 23.9 64 17.8 69 69 Calm 29.9 1013 10 16.0934 0 0
2:51 am 02:51 Clear 75 23.9 64 17.8 69 69 SE 6 9 29.91 1013 10 16.0934 0 0
3:51 am 03:51 Partly Cloudy 76 24.4 62 16.7 62 62 E 9 15 29.9 1012 10 16.0934 0 0
4:51 am 04:51 Mostly Cloudy 75 23.9 63 17.2 66 66 ENE 7 11 29.92 1013 10 16.0934 0 0
5:51 am 05:51 Cloudy 75 23.9 62 16.7 64 64 ESE 9 15 29.93 1014 10 16.0934 0 0
6:51 am 06:51 Mostly Cloudy 76 24.4 63 17.2 64 64 E 6 9 29.94 1014 10 16.0934 0.001 0.001
7:51 am 07:51 Mostly Cloudy 77 25 65 18.3 66 66 N 5 7 29.96 1014 10 16.0934 0 0
8:51 am 08:51 Cloudy 78 25.6 65 18.3 64 64 WNW 8 13 29.99 1016 10 16.0934 0 0
9:51 am 09:51 Mostly Sunny 82 27.8 61 16.1 49 49 W 8 13 29.97 1015 10 16.0934 0 0
10:51 am 10:51 Partly Cloudy 84 28.9 60 15.6 44 44 VRB 3 6 29.97 1015 10 16.0934 0 0
11:51 am 11:51 Sunny 88 31.1 58 14.4 36 36 WNW 8 13 29.93 1014 10 16.0934 0 0
12:51 pm 12:51 Sunny 91 32.8 58 14.4 33 33 VRB 6 9 29.91 1013 10 16.0934 0 0
1:51 pm 13:51 Sunny 95 35 54 12.2 25 25 undefined N/A 29.86 1011 10 16.0934 0 0
2:51 pm 14:51 Sunny 94 34.4 51 10.6 23 23 VRB 5 7 29.83 1010 10 16.0934 0 0
3:51 pm 15:51 Sunny 96 35.6 51 10.6 22 22 SSE 3 6 29.8 1009 10 16.0934 0 0
4:51 pm 16:51 Sunny 99 37.2 51 10.6 20 20 NW 9 15 29.77 1008 10 16.0934 0 0
5:51 pm 17:51 Sunny 97 36.1 51 10.6 21 21 WNW 14 22 29.75 1008 10 16.0934 0 0
6:51 pm 18:51 Mostly Sunny 95 35 53 11.7 24 24 NNW 16 26 29.77 1008 10 16.0934 0 0
7:51 pm 19:51 Clear 91 32.8 53 11.7 27 27 NNW 10 17 29.79 1009 10 16.0934 0 0
8:51 pm 20:51 Clear 88 31.1 52 11.1 29 29 W 10 17 29.83 1010 10 16.0934 0 0
9:51 pm 21:51 Clear 85 29.4 52 11.1 32 32 NW 9 15 29.84 1011 10 16.0934 0 0
10:51 pm 22:51 Clear 83 28.3 52 11.1 34 34 NW 8 13 29.84 1011 10 16.0934 0 0
11:51 pm 23:51 Clear 81 27.2 52 11.1 37 37 NNW 7 11 29.84 1011 10 16.0934 0 0

Powered by AerisWeather